Airport details for: LEBB (Spain)

Metar

LEBB 191030Z VRB02KT 9999 FEW035 19/12 Q1012 NOSIG

General details

ICAO: LEBB
IATA: BIO
Name (city): Bilbao
Major:
Country: Spain
vACC: vACC Spain
Description:

Bilbao Airport LEBB

Bilbao Airport (IATA: BIO, ICAO: LEBB) is a public airport located 9 km (5.6 mi) north[2] of Bilbao, in the municipality of Loiu, in Biscay. It is the most important airport of the Basque Country and northern Spain, with 4,045,613 passengers in 2011. It is famous for its new main terminal opened in 2000 and designed by Santiago Calatrava. It is the 2nd most important bases for Vueling, with the second highest number of destinations offered.

Scenery links:
FS9 scenery:
FSX/P3D scenery:
XP scenery:
Elevation: 137 ft.
Transition altitude: 6000 ft.
MSA: 8500 ft.
Latitude: 43.301111
Longitude: -2.910556
LEBB Charts
LEBB Notams
LEBB Online stations

Runways

Number Course Length Elevation Lat Lon ILS ILS freq ILS FAC GP
10 98° 6562ft / 2000 m 118ft 43.303253 -2.935925 - - 3.0°
12 118° 8530ft / 2600 m 120ft 43.306347 -2.924939 111.55 118° 3.1°
28 278° 6562ft / 2000 m 131ft 43.301261 -2.912542 - - 3.0°
30 298° 8530ft / 2600 m 129ft 43.297703 -2.901356 110.3 298° 3.4°